• In Hungary
  • List of Countries
  • For 7 days
  • Water Temperature
  • Satellite Maps
  • Weather Map
  • News
  • Weather Widgets
  • user-avatar
    Login

    Hourly Weather Michalowek

    Today, 24 September, Monday

    Time Temperature Precipitation Wind Pressure Humidity
    00:00 +9°C° 1.8 mm 7 mps 734 mmHg 92%
    01:00 +9°C° 0 mm 8 mps 734 mmHg 90%
    02:00 +7°C° 0.8 mm 8 mps 736 mmHg 89%
    03:00 +7°C° 0.8 mm 8 mps 737 mmHg 87%
    04:00 +6°C° 0.8 mm 9 mps 739 mmHg 85%
    05:00 +6°C° 0.1 mm 9 mps 740 mmHg 84%
    06:00 +7°C° 0.1 mm 9 mps 741 mmHg 83%
    07:00 +7°C° 0.1 mm 9 mps 742 mmHg 82%
    08:00 +7°C° 0.1 mm 9 mps 743 mmHg 79%
    09:00 +7°C° 0.1 mm 9 mps 743 mmHg 76%
    10:00 +7°C° 0.1 mm 10 mps 744 mmHg 74%
    11:00 +8°C° 0.1 mm 10 mps 745 mmHg 69%
    12:00 +9°C° 0.1 mm 10 mps 745 mmHg 65%
    13:00 +9°C° 0.1 mm 10 mps 745 mmHg 61%
    14:00 +10°C° 0.2 mm 9 mps 746 mmHg 61%
    15:00 +10°C° 0.2 mm 9 mps 746 mmHg 61%
    16:00 +10°C° 0.2 mm 9 mps 746 mmHg 61%
    17:00 +9°C° 0 mm 8 mps 747 mmHg 63%
    18:00 +8°C° 0 mm 7 mps 747 mmHg 65%
    19:00 +8°C° 0 mm 6 mps 748 mmHg 67%
    20:00 +7°C° 0 mm 6 mps 749 mmHg 67%
    21:00 +7°C° 0 mm 6 mps 749 mmHg 68%
    22:00 +5°C° 0 mm 6 mps 750 mmHg 68%
    23:00 +6°C° 0 mm 5 mps 751 mmHg 69%

    Tomorrow, 25 September, Tuesday

    Time Temperature Precipitation Wind Pressure Humidity
    00:00 +6°C° 0 mm 5 mps 751 mmHg 71%
    01:00 +6°C° 0 mm 5 mps 751 mmHg 72%
    02:00 +5°C° 0 mm 5 mps 752 mmHg 74%
    03:00 +5°C° 0 mm 5 mps 752 mmHg 75%
    04:00 +5°C° 0 mm 5 mps 753 mmHg 77%
    05:00 +5°C° 0 mm 5 mps 753 mmHg 76%
    06:00 +5°C° 0 mm 5 mps 754 mmHg 75%
    07:00 +5°C° 0 mm 5 mps 755 mmHg 73%
    08:00 +7°C° 0 mm 6 mps 755 mmHg 65%
    09:00 +9°C° 0 mm 6 mps 756 mmHg 56%
    10:00 +10°C° 0 mm 7 mps 756 mmHg 47%
    11:00 +11°C° 0 mm 7 mps 757 mmHg 45%
    12:00 +11°C° 0 mm 7 mps 757 mmHg 42%
    13:00 +12°C° 0 mm 7 mps 757 mmHg 39%
    14:00 +11°C° 0 mm 7 mps 757 mmHg 41%
    15:00 +11°C° 0 mm 6 mps 758 mmHg 43%
    16:00 +11°C° 0 mm 6 mps 758 mmHg 45%
    17:00 +9°C° 0 mm 5 mps 758 mmHg 49%
    18:00 +8°C° 0 mm 4 mps 759 mmHg 53%
    19:00 +8°C° 0 mm 3 mps 759 mmHg 57%
    20:00 +7°C° 0 mm 2 mps 759 mmHg 58%
    21:00 +7°C° 0 mm 2 mps 760 mmHg 60%
    22:00 +7°C° 0 mm 1 mps 760 mmHg 61%
    23:00 +7°C° 0 mm 1 mps 760 mmHg 62%

    Day after tomorrow, 26 September, Wednesday

    Time Temperature Precipitation Wind Pressure Humidity
    00:00 +6°C° 0 mm 2 mps 760 mmHg 64%
    01:00 +6°C° 0 mm 2 mps 760 mmHg 65%
    02:00 +5°C° 0 mm 2 mps 760 mmHg 67%
    03:00 +5°C° 0 mm 2 mps 760 mmHg 69%
    04:00 +5°C° 0 mm 2 mps 760 mmHg 71%
    05:00 +5°C° 0 mm 3 mps 760 mmHg 72%
    06:00 +5°C° 0 mm 3 mps 760 mmHg 72%
    07:00 +5°C° 0 mm 3 mps 760 mmHg 73%
    08:00 +7°C° 0 mm 4 mps 760 mmHg 66%
    09:00 +9°C° 0 mm 5 mps 760 mmHg 59%
    10:00 +11°C° 0 mm 6 mps 759 mmHg 52%
    11:00 +11°C° 0 mm 6 mps 759 mmHg 50%
    12:00 +13°C° 0 mm 6 mps 758 mmHg 48%
    13:00 +13°C° 0 mm 6 mps 758 mmHg 46%
    14:00 +13°C° 0 mm 6 mps 757 mmHg 48%
    15:00 +13°C° 0 mm 5 mps 756 mmHg 51%
    16:00 +12°C° 0 mm 5 mps 756 mmHg 53%
    17:00 +12°C° 0.1 mm 5 mps 756 mmHg 55%
    18:00 +10°C° 0.1 mm 5 mps 755 mmHg 58%
    19:00 +11°C° 0.1 mm 4 mps 755 mmHg 60%
    20:00 +10°C° 0 mm 5 mps 755 mmHg 58%
    21:00 +10°C° 0 mm 5 mps 755 mmHg 55%
    22:00 +11°C° 0 mm 6 mps 754 mmHg 52%
    23:00 +10°C° 0 mm 6 mps 754 mmHg 53%

    27 September, Thursday

    Time Temperature Precipitation Wind Pressure Humidity
    00:00 +10°C° 0 mm 6 mps 754 mmHg 53%
    01:00 +10°C° 0 mm 6 mps 753 mmHg 53%
    02:00 +10°C° 0 mm 6 mps 753 mmHg 55%
    03:00 +9°C° 0 mm 6 mps 753 mmHg 56%
    04:00 +9°C° 0 mm 6 mps 753 mmHg 57%
    05:00 +9°C° 0 mm 6 mps 753 mmHg 59%
    06:00 +10°C° 0 mm 6 mps 753 mmHg 62%
    07:00 +10°C° 0 mm 7 mps 753 mmHg 64%
    08:00 +11°C° 0 mm 7 mps 753 mmHg 64%
    09:00 +14°C° 0 mm 7 mps 753 mmHg 63%
    10:00 +15°C° 0 mm 7 mps 753 mmHg 63%
    11:00 +16°C° 0 mm 7 mps 753 mmHg 62%
    12:00 +17°C° 0 mm 7 mps 753 mmHg 61%
    13:00 +18°C° 0 mm 7 mps 752 mmHg 61%
    14:00 +18°C° 0 mm 7 mps 752 mmHg 62%
    15:00 +19°C° 0 mm 6 mps 752 mmHg 64%
    16:00 +19°C° 0 mm 5 mps 752 mmHg 66%
    17:00 +18°C° 0 mm 4 mps 752 mmHg 70%
    18:00 +17°C° 0 mm 4 mps 752 mmHg 75%
    19:00 +16°C° 0 mm 3 mps 752 mmHg 79%
    20:00 +14°C° 0 mm 3 mps 752 mmHg 82%
    21:00 +14°C° 0 mm 3 mps 752 mmHg 84%
    22:00 +13°C° 0 mm 3 mps 752 mmHg 87%
    23:00 +13°C° 0 mm 3 mps 751 mmHg 88%

    28 September, Friday

    Time Temperature Precipitation Wind Pressure Humidity
    00:00 +13°C° 0 mm 3 mps 751 mmHg 89%
    01:00 +13°C° 0 mm 3 mps 750 mmHg 90%
    02:00 +13°C° 0 mm 4 mps 750 mmHg 89%
    03:00 +13°C° 0 mm 4 mps 749 mmHg 89%
    04:00 +13°C° 0 mm 4 mps 748 mmHg 89%
    05:00 +13°C° 0 mm 5 mps 748 mmHg 85%
    06:00 +14°C° 0 mm 5 mps 747 mmHg 81%
    07:00 +14°C° 0 mm 5 mps 747 mmHg 78%
    08:00 +16°C° 0 mm 6 mps 747 mmHg 71%
    09:00 +17°C° 0 mm 6 mps 747 mmHg 64%
    10:00 +20°C° 0 mm 6 mps 746 mmHg 56%
    11:00 +21°C° 0 mm 7 mps 746 mmHg 53%
    12:00 +21°C° 0 mm 7 mps 746 mmHg 49%
    13:00 +22°C° 0 mm 7 mps 745 mmHg 46%
    14:00 +21°C° 0 mm 6 mps 745 mmHg 48%
    15:00 +20°C° 0 mm 6 mps 745 mmHg 50%
    16:00 +19°C° 0 mm 5 mps 745 mmHg 53%
    17:00 +17°C° 0 mm 5 mps 745 mmHg 58%
    18:00 +15°C° 0 mm 5 mps 746 mmHg 64%
    19:00 +14°C° 0 mm 4 mps 746 mmHg 69%
    20:00 +13°C° 0 mm 4 mps 746 mmHg 67%
    21:00 +13°C° 0 mm 4 mps 747 mmHg 65%
    22:00 +13°C° 0 mm 4 mps 747 mmHg 63%
    23:00 +12°C° 0.1 mm 4 mps 747 mmHg 66%

    29 September, Saturday

    Time Temperature Precipitation Wind Pressure Humidity
    00:00 +11°C° 0.1 mm 4 mps 748 mmHg 69%
    01:00 +11°C° 0.1 mm 3 mps 748 mmHg 72%
    02:00 +10°C° 0.2 mm 4 mps 748 mmHg 76%
    03:00 +10°C° 0.2 mm 4 mps 748 mmHg 79%
    04:00 +8°C° 0.2 mm 4 mps 749 mmHg 83%
    05:00 +8°C° 0.2 mm 4 mps 749 mmHg 83%
    06:00 +8°C° 0.2 mm 4 mps 750 mmHg 83%
    07:00 +8°C° 0.2 mm 4 mps 751 mmHg 84%
    08:00 +9°C° 0 mm 5 mps 751 mmHg 75%
    09:00 +10°C° 0 mm 5 mps 752 mmHg 67%
    10:00 +12°C° 0 mm 5 mps 753 mmHg 58%
    11:00 +12°C° 0 mm 5 mps 753 mmHg 53%
    12:00 +13°C° 0 mm 5 mps 753 mmHg 48%
    13:00 +13°C° 0 mm 5 mps 753 mmHg 43%
    14:00 +13°C° 0 mm 5 mps 754 mmHg 43%
    15:00 +13°C° 0 mm 4 mps 754 mmHg 43%
    16:00 +12°C° 0 mm 4 mps 754 mmHg 43%
    17:00 +11°C° 0 mm 3 mps 754 mmHg 47%
    18:00 +10°C° 0 mm 3 mps 755 mmHg 52%
    19:00 +9°C° 0 mm 2 mps 755 mmHg 56%
    20:00 +8°C° 0 mm 2 mps 756 mmHg 58%
    21:00 +8°C° 0 mm 2 mps 756 mmHg 59%
    22:00 +7°C° 0 mm 2 mps 756 mmHg 61%
    23:00 +7°C° 0 mm 2 mps 756 mmHg 61%
    Show more